, AK

(GMT )
Portage Glacier

Weather History for PATO - January, 2012

Change the Weather History Date:

Tuesday, January 10, 2012

  Actual Average Record
Temperature  
Mean Temperature 27 °F -  
Max Temperature 35 °F - - ()
Min Temperature 19 °F - - ()
Degree Days  
Heating Degree Days 38    
Moisture  
Dew Point 26 °F    
Average Humidity 89    
Maximum Humidity 100    
Minimum Humidity 81    
Precipitation  
Precipitation 3.32 in - - ()
Sea Level Pressure  
Sea Level Pressure 29.71 in    
Wind  
Wind Speed 23 mph (ESE)    
Max Wind Speed 31 mph    
Max Gust Speed 55 mph    
Visibility 1 miles    
Events Fog , Snow    
Averages and records for this station are not official NWS values.
T = Trace of Precipitation, MM = Missing Value Source: NWS Daily Summary

Daily Weather History Graph

Daily Weather History Graph

Search for Another Location

Airport or City:

Astronomy

Jan. 10, 2012 Rise Set
Actual Time 9:56 AM AKST 4:09 PM AKST
Civil Twilight 9:00 AM AKST 5:05 PM AKST
Nautical Twilight 8:03 AM AKST 6:02 PM AKST
Astronomical Twilight 7:11 AM AKST 6:54 PM AKST
Moon 6:58 PM AKST (1/10) 10:00 AM AKST (1/10)
Length of Visible Light 8h 05m
Length of Day
6h 12m
Full, 97% of the Moon is Illuminated
Jan 10
Full
Jan 16
Last Quarter
Jan 22
New
Jan 30
First Quarter
Feb 7
Full

Hourly Weather History & Observations

Time (AKST) Temp. Windchill Dew Point Humidity Pressure Visibility Wind Dir Wind Speed Gust Speed Precip Events Conditions
12:53 AM 19.9 °F 3.9 °F 16.0 °F 85% 30.15 in 0.5 mi East 20.7 mph 43.7 mph 0.05 in Fog , Snow Snow
1:15 AM 19.4 °F 1.4 °F 15.8 °F 86% 30.13 in 0.2 mi ESE 26.5 mph 40.3 mph 0.01 in Fog , Snow Snow
1:53 AM 19.9 °F 3.5 °F 15.1 °F 81% 30.13 in 0.5 mi ESE 21.9 mph 43.7 mph 0.06 in Snow Snow
2:09 AM 19.4 °F 2.5 °F 15.8 °F 86% 30.11 in 0.2 mi ESE 23.0 mph 38.0 mph 0.02 in Fog , Snow Snow
3:18 AM 19.4 °F 2.8 °F 15.8 °F 86% 30.07 in 0.2 mi ESE 21.9 mph 49.5 mph 0.03 in Fog , Snow Snow
3:33 AM 19.4 °F 1.4 °F 17.6 °F 93% 30.07 in 0.2 mi East 26.5 mph 48.3 mph 0.06 in Fog , Snow Light Freezing Fog
3:53 AM 21.0 °F 5.4 °F 18.0 °F 88% 30.05 in 0.2 mi ESE 20.7 mph 52.9 mph 0.08 in Fog , Snow Snow
4:53 AM 21.9 °F 4.8 °F 19.0 °F 89% 29.95 in 0.2 mi ENE 26.5 mph 49.5 mph 0.09 in Fog , Snow Heavy Snow
5:53 AM 23.0 °F - 21.0 °F 92% - 0.2 mi North - - 0.22 in Fog Light Freezing Fog
6:53 AM 24.1 °F - 21.9 °F 91% - 0.2 mi North - - 0.27 in Fog , Snow Heavy Snow
7:53 AM 24.1 °F - 23.0 °F 96% - 0.2 mi North - - 0.20 in Fog , Snow Heavy Snow
8:53 AM 25.0 °F - 24.1 °F 96% - 0.2 mi North - - 0.32 in Fog Light Freezing Fog
9:53 AM 26.1 °F 10.1 °F 24.1 °F 92% - 0.2 mi East 27.6 mph 44.9 mph 0.11 in Fog , Snow Heavy Snow
10:53 AM 27.0 °F 12.2 °F 26.1 °F 96% 29.71 in 0.2 mi ESE 24.2 mph 49.5 mph 0.21 in Fog , Snow Heavy Snow
11:43 AM 28.4 °F 12.5 °F 26.6 °F 93% 29.68 in 0.2 mi East 31.1 mph 55.2 mph 0.14 in Fog Light Freezing Fog
11:53 AM 28.0 °F 12.0 °F 26.1 °F 92% 29.67 in 0.2 mi East 31.1 mph 46.0 mph 0.18 in Fog Light Freezing Fog
12:08 PM 28.4 °F - 26.6 °F 93% 29.64 in 0.2 mi North - - 0.08 in Fog Light Freezing Fog
12:53 PM 28.9 °F 14.3 °F 28.0 °F 96% 29.65 in 0.2 mi East 26.5 mph 52.9 mph 0.16 in Fog Light Freezing Fog
1:27 PM 28.4 °F 13.0 °F 28.4 °F 100% 29.62 in 0.5 mi East 28.8 mph 42.6 mph N/A Fog Light Freezing Fog
1:34 PM 28.4 °F 14.1 °F 28.4 °F 100% 29.60 in 0.2 mi East 24.2 mph 50.6 mph N/A Fog Light Freezing Fog
1:53 PM 30.0 °F 14.9 °F 28.9 °F 96% 29.60 in 0.2 mi East 29.9 mph 52.9 mph 0.01 in Fog , Snow Heavy Snow
2:53 PM 30.9 °F - 28.9 °F 92% 29.61 in 0.2 mi North - - 0.14 in Fog , Snow Heavy Snow
3:53 PM 32.0 °F 19.5 °F 30.0 °F 92% 29.61 in 0.2 mi ESE 21.9 mph 48.3 mph 0.17 in Fog , Snow Heavy Snow
4:32 PM 33.8 °F 21.6 °F 30.2 °F 87% 29.61 in 0.5 mi ESE 23.0 mph 41.4 mph 0.15 in Fog , Snow Snow
4:53 PM 33.1 °F 21.5 °F 30.0 °F 89% 29.62 in 0.5 mi ESE 19.6 mph 42.6 mph 0.25 in Fog , Snow Snow
5:14 PM 33.8 °F 21.3 °F 30.2 °F 87% 29.60 in 0.8 mi ESE 24.2 mph 43.7 mph 0.07 in Snow Light Snow
5:43 PM 33.8 °F 22.5 °F 30.2 °F 87% 29.60 in 1.0 mi ESE 19.6 mph 47.2 mph 0.15 in Snow Light Snow
5:53 PM 34.0 °F 21.3 °F 28.9 °F 82% 29.60 in 1.0 mi ESE 25.3 mph 42.6 mph 0.16 in Snow Light Snow
6:53 PM 34.0 °F 21.3 °F 30.0 °F 85% 29.60 in 1.2 mi SE 25.3 mph 42.6 mph 0.11 in Snow Light Snow
7:48 PM 35.6 °F 24.0 °F 30.2 °F 81% 29.60 in 2.0 mi SE 23.0 mph 40.3 mph 0.10 in Snow Light Snow
7:49 PM 35.1 °F 23.8 °F 30.0 °F 82% 29.61 in 2.0 mi ESE 20.7 mph 40.3 mph 0.10 in Snow Light Snow
8:38 PM 35.6 °F 24.5 °F 32.0 °F 87% 29.59 in 1.5 mi ESE 20.7 mph 39.1 mph 0.09 in Snow Light Snow
8:51 PM 35.6 °F 26.6 °F 30.2 °F 81% 29.60 in 2.0 mi East 13.8 mph 35.7 mph 0.11 in Snow Light Snow
8:53 PM 35.1 °F 23.3 °F 30.0 °F 82% 29.60 in 2.0 mi East 23.0 mph 40.3 mph 0.11 in Snow Light Snow
9:19 PM 35.6 °F 24.8 °F 30.2 °F 81% 29.60 in 2.0 mi East 19.6 mph 32.2 mph 0.05 in Snow Light Snow
9:26 PM 35.6 °F 24.0 °F 30.2 °F 81% 29.60 in 1.8 mi ENE 23.0 mph 36.8 mph 0.06 in Snow Light Snow
9:37 PM 35.6 °F 25.9 °F 30.2 °F 81% 29.59 in 2.5 mi East 16.1 mph 27.6 mph 0.08 in Snow Light Snow
9:53 PM 35.1 °F 25.9 °F 30.0 °F 82% 29.60 in 1.8 mi ESE 13.8 mph 33.4 mph 0.10 in Snow Light Snow
10:01 PM 35.6 °F 26.2 °F 30.2 °F 81% 29.59 in 2.0 mi East 15.0 mph 28.8 mph 0.02 in Snow Light Snow
10:53 PM 34.0 °F 25.0 °F 32.0 °F 92% 29.59 in 3.0 mi SE 12.7 mph 26.5 mph 0.10 in Snow Light Snow
11:03 PM 33.8 °F 25.8 °F 32.0 °F 93% 29.58 in 4.0 mi SE 10.4 mph 27.6 mph 0.02 in Snow Light Snow
11:29 PM 33.8 °F 23.9 °F 32.0 °F 93% 29.57 in 6.0 mi SE 15.0 mph 29.9 mph 0.07 in Snow Light Snow
11:53 PM 33.1 °F 24.4 °F 32.0 °F 96% 29.58 in 9.0 mi SSE 11.5 mph 24.2 mph 0.12 in Snow Light Snow